Regional Weather Roundup
Issued by NWS

Home | Current Version | Previous Version | Graphics & Text | Print | Product List | Glossary Off
Versions: 1 2 3 4 5 6 7 8 9 10 11 12 13 14 15 16 17 18 19 20 21 22 23 24 25 26 27 28 29 30 31 32 33 34 35 36 37 38 39 40 41 42 43 44 45 46 47 48 49 50

000
ASUS43 KLOT 260809
RWRIL

ILLINOIS REGIONAL WEATHER ROUNDUP
NATIONAL WEATHER SERVICE CHICAGO/ROMEOVILLE IL
300 AM CDT FRI AUG 26 2016

NOTE: "FAIR" INDICATES FEW OR NO CLOUDS BELOW 12,000 FEET WITH NO
SIGNIFICANT WEATHER AND/OR OBSTRUCTIONS TO VISIBILITY.

* THESE STATIONS ARE NOT UNDER NWS QUALITY CONTROL. THEY ALSO MAY NOT
  REPORT WEATHER SUCH AS PRECIPITATION OR FOG.

ILZ001-002-007-009-015-016-024-260900-
NORTHWEST ILLINOIS

CITY           SKY/WX    TMP DP  RH WIND       PRES   REMARKS
MOLINE         FAIR      64  61  90 CALM      30.11S
STERLING*      FAIR      62  62 100 CALM      30.12S
SAVANNA*       FAIR      61  61  99 N5        30.12S FOG
$$

ILZ003-004-008-010-011-017-018-260900-
NORTH CENTRAL ILLINOIS

CITY           SKY/WX    TMP DP  RH WIND       PRES   REMARKS
ROCKFORD       FAIR      66  61  84 N5        30.13R
FREEPORT*      FAIR      60  59  96 CALM      30.15R
ROCHELLE*      FAIR      61  61 100 CALM      30.12S
DE KALB*       FAIR      65  62  90 N5        30.12S
$$

ILZ005-006-012>014-019>023-260900-
NORTHEAST ILLINOIS

CITY           SKY/WX    TMP DP  RH WIND       PRES   REMARKS
CHICAGO-OHARE  FAIR      68  62  81 NW7       30.09F
CHICAGO-MIDWAY CLOUDY    69  63  81 CALM      30.10S
AURORA         FAIR      63  61  93 W3        30.11F
LANSING*       FAIR      66  66 100 CALM      30.11S
JOLIET*        FAIR      66  66  98 CALM      30.11S FOG
WAUKEGAN       FAIR      64  62  93 W3        30.10S
DUPAGE AIRPORT FAIR      64  60  87 N3        30.10S
KANKAKEE*      FAIR      68  67  94 CALM      30.11S
WHEELING       FAIR      67  62  84 NW6       30.11S
MORRIS*        FAIR      65  64  96 CALM      30.09F
ROMEOVILLE*    FAIR      64  64 100 CALM      30.11S
NORTHERLY ISL    N/A     71  59  65 NW6         N/A
$$

LMZ740>746-260900-
SOUTHERN LAKE MICHIGAN

STATION/POSITION SKY/WX   TEMP    WIND        PRES    VSBY  WAVE
                          AIR SEA DIR/SP/G                  HT/PER
                          (F)     (DEG/KT/KT) (MB)    (MI)  (FT/S)
SOUTHERN BUOY              74 74  300/ 14/ 16 1018.3R         1/ 3
WILMETTE HARBOR            68 68  350/  4/  6   N/A           0
HARRISON CRIB              73     310/  8/  8   N/A
BURNHAM HARBOR             71     330/  4/  6   N/A
CALUMET HARBOR             70     260/  2/  3 1018.9R
BURNS HARBOR               71     250/  3/  4 1019.6S
MICHIGAN CITY              72     200/  2/  2   N/A
MICHIGAN CITY 6N           73 75  300/  4/  6   N/A           1
ST. JOSEPH                 75 75  320/  8/ 10 1018.8R         1/ 3
$$

ILZ025>027-034>036-040-047-049-050-058-095>099-260900-
WEST-CENTRAL ILLINOIS

CITY           SKY/WX    TMP DP  RH WIND       PRES   REMARKS
QUINCY         CLOUDY    69  69 100 NE9       30.09S
GALESBURG*     CLOUDY    66  64  94 CALM      30.11S
MACOMB*        MOCLDY    68  67  98 NE3       30.12F
JACKSONVILLE*  FAIR      72  69  93 NE8       30.07F
PITTSFIELD*    MOCLDY    71  70  98 N7        30.10R
$$

ILZ028>032-037-038-041>044-048-051>054-059>061-260900-
CENTRAL ILLINOIS

CITY           SKY/WX    TMP DP  RH WIND       PRES   REMARKS
PONTIAC        FAIR      68  68 100 CALM      30.11S
BLOOMINGTON    LGT RAIN  70  67  90 N6        30.11F
DECATUR        LGT RAIN  74  70  87 E10       30.07F
PEORIA         FAIR      69  68  96 NE5       30.09F
LACON*         MOCLDY    66  65  94 CALM      30.10R
LINCOLN*       TSTM      70  69  99 CALM      30.12R
SPRINGFIELD    MOCLDY    74  70  87 N12       30.10R
TAYLORVILLE    FAIR      71  71  99 CALM      30.06F
$$

ILZ033-039-045-046-055>057-062-063-260900-
EAST-CENTRAL ILLINOIS

CITY           SKY/WX    TMP DP  RH WIND       PRES   REMARKS
CHAMPAIGN      FAIR      72  68  87 E7        30.08F
RANTOUL*       MOCLDY    73  69  85 NE3       30.09F
MATTOON        FAIR      74  72  93 E5        30.05F
PARIS*         FAIR      73  73  98 CALM      30.08F
$$

ILZ079-100>102-260900-
SOUTHWEST ILLINOIS

CITY           SKY/WX    TMP DP  RH WIND       PRES   REMARKS
ALTON          FAIR      70  68  94 CALM      30.06S
BELLEVILLE     FAIR      74  70  86 SE5       30.04F
CAHOKIA*       FAIR      76  70  82 CALM      30.05F
SPARTA*        FAIR      75  73  91 CALM      30.07F
$$

ILZ064>066-069>071-074>076-080>082-084>086-088>090-092>094-260900-
SOUTH-CENTRAL ILLINOIS

CITY           SKY/WX    TMP DP  RH WIND       PRES   REMARKS
CARBONDALE     FAIR      72  70  93 CALM      30.06F
CAIRO*         FAIR      72  72 100 CALM      30.07S FOG
EFFINGHAM*     FAIR      74  74 100 CALM      30.07F
MARION         FAIR      75  73  94 S3        30.07F
MT. VERNON     FAIR      72  66  83 CALM      30.08F
CENTRALIA*     FAIR      76  74  94 CALM      30.06F
SALEM*         FAIR      76  72  88 W3        30.07F
$$

ILZ067-068-072-073-078-083-087-091-260900-
SOUTHEAST ILLINOIS

CITY           SKY/WX    TMP DP  RH WIND       PRES   REMARKS
LAWRENCEVILLE  FAIR      73  72  96 CALM      30.07F
FLORA*         FAIR      76  73  89 CALM      30.07S
FAIRFIELD*     FAIR      72  72  99 CALM      30.06F
HARRISBURG*    FAIR      72  72  99 CALM      30.08F
ROBINSON*      FAIR      72  71  97 E3        30.08F
CARMI*         FAIR      71  71 100 CALM      30.07F
$$

ABBREVIATIONS USED IN REMARKS
   TC - TEMPERATURE IN CELSIUS
  WCI - WIND CHILL INDEX
   HX - HEAT INDEX
  VSB - VISIBILITY
$$




USA.gov is the U.S. government's official web portal to all federal, state and local government web resources and services.